TimeEDT,TemperatureF,Dew PointF,Humidity,Sea Level PressureIn,VisibilityMPH,Wind Direction,Wind SpeedMPH,Gust SpeedMPH,PrecipitationIn,Events,Conditions,WindDirDegrees,DateUTC
12:53 AM,69.1,64.9,87,29.92,10.0,SW,4.6,-,N/A,,Clear,220,2013-06-25 04:53:00
1:53 AM,68.0,64.0,87,29.92,10.0,WSW,4.6,-,N/A,,Clear,250,2013-06-25 05:53:00
2:53 AM,68.0,64.0,87,29.93,10.0,WSW,6.9,-,N/A,,Clear,250,2013-06-25 06:53:00
3:53 AM,68.0,62.1,81,29.93,10.0,West,4.6,-,N/A,,Clear,260,2013-06-25 07:53:00
4:53 AM,68.0,63.0,84,29.93,10.0,West,6.9,-,N/A,,Clear,270,2013-06-25 08:53:00
5:53 AM,69.1,64.0,84,29.93,10.0,WSW,5.8,-,N/A,,Clear,250,2013-06-25 09:53:00
6:53 AM,72.0,64.0,76,29.93,10.0,West,5.8,-,N/A,,Clear,260,2013-06-25 10:53:00
7:53 AM,77.0,64.9,66,29.93,10.0,West,3.5,-,N/A,,Partly Cloudy,260,2013-06-25 11:53:00
8:53 AM,78.1,66.0,66,29.92,10.0,WSW,8.1,-,N/A,,Partly Cloudy,240,2013-06-25 12:53:00
9:53 AM,80.1,66.9,64,29.92,10.0,WSW,10.4,-,N/A,,Clear,240,2013-06-25 13:53:00
10:53 AM,81.0,66.9,62,29.91,10.0,SW,9.2,-,N/A,,Clear,220,2013-06-25 14:53:00
11:53 AM,82.9,64.9,54,29.92,10.0,West,12.7,18.4,N/A,,Clear,260,2013-06-25 15:53:00
12:53 PM,84.9,64.9,51,29.91,10.0,WSW,10.4,-,N/A,,Clear,250,2013-06-25 16:53:00
1:53 PM,81.0,69.1,67,29.89,10.0,SSW,9.2,-,N/A,,Clear,210,2013-06-25 17:53:00
2:53 PM,77.0,68.0,74,29.87,10.0,SSW,11.5,-,N/A,,Clear,200,2013-06-25 18:53:00
3:53 PM,77.0,68.0,74,29.85,10.0,SW,11.5,-,N/A,,Clear,220,2013-06-25 19:53:00
4:53 PM,75.9,66.9,74,29.83,10.0,SW,11.5,19.6,N/A,,Clear,220,2013-06-25 20:53:00
5:53 PM,73.0,66.0,79,29.82,9.0,SW,11.5,18.4,N/A,,Clear,220,2013-06-25 21:53:00
6:53 PM,73.0,66.9,81,29.81,9.0,SW,15.0,21.9,N/A,,Clear,230,2013-06-25 22:53:00
7:53 PM,70.0,66.9,90,29.80,7.0,SW,11.5,-,N/A,,Clear,220,2013-06-25 23:53:00
8:53 PM,69.1,66.0,90,29.78,6.0,SSW,6.9,-,N/A,,Clear,210,2013-06-26 00:53:00
9:53 PM,70.0,66.9,90,29.79,7.0,SW,10.4,-,N/A,,Clear,220,2013-06-26 01:53:00
10:53 PM,71.1,66.9,87,29.79,8.0,WSW,5.8,-,N/A,,Overcast,240,2013-06-26 02:53:00
11:53 PM,73.0,68.0,84,29.80,9.0,West,13.8,23.0,N/A,,Scattered Clouds,260,2013-06-26 03:53:00
11:59 PM,71.6,68.0,88,29.81,1.8,West,16.1,26.5,N/A,Rain,Heavy Rain,270,2013-06-26 03:59:00